TimeCST,TemperatureF,Dew PointF,Humidity,Sea Level PressureIn,VisibilityMPH,Wind Direction,Wind SpeedMPH,Gust SpeedMPH,PrecipitationIn,Events,Conditions,WindDirDegrees,DateUTC
12:15 AM,11.3,4.5,74,30.17,10.0,West,18.4,-,N/A,,Clear,280,2014-02-24 06:15:00
12:35 AM,11.3,4.5,74,30.17,10.0,West,18.4,24.2,N/A,,Clear,280,2014-02-24 06:35:00
12:55 AM,11.1,4.1,73,30.17,10.0,West,17.3,21.9,N/A,,Clear,280,2014-02-24 06:55:00
1:15 AM,11.1,4.1,73,30.17,10.0,West,17.3,23.0,N/A,,Clear,280,2014-02-24 07:15:00
1:35 AM,11.1,3.9,73,30.17,10.0,West,15.0,-,N/A,,Clear,280,2014-02-24 07:35:00
1:55 AM,11.1,3.6,72,30.17,10.0,West,17.3,-,N/A,,Clear,280,2014-02-24 07:55:00
2:20 AM,10.8,3.2,72,30.17,10.0,West,16.1,-,N/A,,Clear,270,2014-02-24 08:20:00
2:35 AM,10.8,3.0,71,30.17,10.0,West,13.8,19.6,N/A,,Clear,270,2014-02-24 08:35:00
2:55 AM,10.9,2.7,69,30.17,10.0,West,15.0,-,N/A,,Clear,280,2014-02-24 08:55:00
3:15 AM,10.6,2.3,69,30.17,10.0,West,16.1,20.7,N/A,,Clear,280,2014-02-24 09:15:00
3:35 AM,10.4,2.3,70,30.17,10.0,West,15.0,-,N/A,,Clear,280,2014-02-24 09:35:00
3:55 AM,10.4,2.1,69,30.17,10.0,West,13.8,-,N/A,,Clear,280,2014-02-24 09:55:00
4:15 AM,10.2,1.8,69,30.17,10.0,West,16.1,-,N/A,,Clear,280,2014-02-24 10:15:00
4:35 AM,10.0,1.4,68,30.17,10.0,WNW,15.0,-,N/A,,Clear,290,2014-02-24 10:35:00
4:55 AM,9.5,1.2,69,30.18,10.0,West,15.0,-,N/A,,Clear,280,2014-02-24 10:55:00
5:01 AM,8.6,1.4,73,30.18,10.0,West,13.8,-,N/A,,Clear,280,2014-02-24 11:01:00
5:15 AM,9.5,1.0,69,30.18,10.0,West,13.8,-,N/A,,Clear,280,2014-02-24 11:15:00
5:35 AM,9.1,0.5,68,30.19,10.0,West,13.8,-,N/A,,Clear,270,2014-02-24 11:35:00
5:43 AM,8.6,-0.4,67,30.19,10.0,West,13.8,-,N/A,,Clear,270,2014-02-24 11:43:00
5:55 AM,8.8,0.5,69,30.19,10.0,West,13.8,-,N/A,,Clear,270,2014-02-24 11:55:00
6:03 AM,8.6,-0.4,67,30.19,10.0,West,13.8,-,N/A,,Clear,270,2014-02-24 12:03:00
6:15 AM,8.6,0.3,69,30.19,10.0,West,13.8,-,N/A,,Clear,280,2014-02-24 12:15:00
6:35 AM,8.1,-0.2,69,30.19,10.0,West,15.0,-,N/A,,Clear,270,2014-02-24 12:35:00
6:55 AM,7.5,-0.4,70,30.19,10.0,West,12.7,-,N/A,,Clear,260,2014-02-24 12:55:00
7:20 AM,7.3,-0.4,71,30.20,10.0,WSW,13.8,-,N/A,,Clear,250,2014-02-24 13:20:00
7:35 AM,7.7,0.1,71,30.20,10.0,WSW,12.7,-,N/A,,Clear,250,2014-02-24 13:35:00
7:55 AM,7.7,0.3,72,30.21,10.0,West,12.7,-,N/A,,Clear,260,2014-02-24 13:55:00
8:15 AM,8.6,0.5,70,30.22,10.0,West,15.0,-,N/A,,Clear,270,2014-02-24 14:15:00
8:35 AM,9.5,0.9,68,30.23,10.0,West,13.8,-,N/A,,Clear,270,2014-02-24 14:35:00
9:00 AM,10.4,1.4,67,30.23,10.0,West,13.8,-,N/A,,Clear,270,2014-02-24 15:00:00
9:15 AM,11.3,1.6,65,30.24,10.0,West,12.7,-,N/A,,Clear,260,2014-02-24 15:15:00
9:35 AM,11.8,1.9,65,30.24,10.0,West,13.8,-,N/A,,Clear,270,2014-02-24 15:35:00
9:55 AM,12.7,2.7,64,30.25,10.0,West,13.8,18.4,N/A,,Clear,260,2014-02-24 15:55:00
10:15 AM,13.3,2.7,63,30.24,10.0,West,10.4,17.3,N/A,,Clear,270,2014-02-24 16:15:00
10:35 AM,14.2,2.7,60,30.25,10.0,West,16.1,-,N/A,,Clear,280,2014-02-24 16:35:00
10:55 AM,14.2,2.3,59,30.24,10.0,West,13.8,-,N/A,,Clear,280,2014-02-24 16:55:00
11:15 AM,15.6,3.6,59,30.24,10.0,West,11.5,-,N/A,,Clear,280,2014-02-24 17:15:00
11:35 AM,16.7,4.1,58,30.24,10.0,West,12.7,-,N/A,,Clear,270,2014-02-24 17:35:00
11:55 AM,17.4,4.1,56,30.23,10.0,West,15.0,-,N/A,,Clear,270,2014-02-24 17:55:00
12:15 PM,18.5,5.0,56,30.23,10.0,West,13.8,-,N/A,,Clear,270,2014-02-24 18:15:00
12:35 PM,17.8,4.3,56,30.23,10.0,WSW,16.1,-,N/A,,Clear,250,2014-02-24 18:35:00
12:55 PM,18.9,5.4,56,30.23,10.0,WSW,17.3,20.7,N/A,,Clear,250,2014-02-24 18:55:00
1:15 PM,18.3,5.0,56,30.22,10.0,West,17.3,23.0,N/A,,Clear,260,2014-02-24 19:15:00
1:35 PM,18.0,5.0,57,30.22,10.0,West,19.6,-,N/A,,Clear,260,2014-02-24 19:35:00
1:55 PM,18.0,4.5,56,30.22,10.0,West,16.1,24.2,N/A,,Clear,270,2014-02-24 19:55:00
2:15 PM,18.3,4.8,56,30.21,10.0,West,19.6,-,N/A,,Clear,260,2014-02-24 20:15:00
2:35 PM,18.5,5.0,56,30.21,10.0,West,16.1,23.0,N/A,,Clear,270,2014-02-24 20:35:00
2:55 PM,18.1,4.5,55,30.21,10.0,West,19.6,-,N/A,,Scattered Clouds,260,2014-02-24 20:55:00
3:15 PM,19.0,4.6,54,30.20,10.0,West,17.3,21.9,N/A,,Mostly Cloudy,270,2014-02-24 21:15:00
3:35 PM,19.4,4.5,52,30.20,10.0,West,15.0,20.7,N/A,,Scattered Clouds,270,2014-02-24 21:35:00
3:55 PM,19.4,4.8,53,30.20,10.0,West,15.0,-,N/A,,Clear,270,2014-02-24 21:55:00
4:15 PM,19.4,5.2,54,30.19,10.0,West,15.0,-,N/A,,Clear,260,2014-02-24 22:15:00
4:35 PM,18.3,4.6,55,30.19,10.0,West,12.7,-,N/A,,Clear,270,2014-02-24 22:35:00
4:55 PM,17.6,5.5,59,30.19,10.0,West,13.8,-,N/A,,Clear,270,2014-02-24 22:55:00
5:15 PM,17.1,4.8,59,30.19,10.0,West,12.7,-,N/A,,Clear,260,2014-02-24 23:15:00
5:35 PM,16.7,4.8,60,30.19,10.0,West,10.4,-,N/A,,Scattered Clouds,270,2014-02-24 23:35:00
5:55 PM,16.3,4.5,60,30.19,10.0,West,10.4,-,N/A,,Mostly Cloudy,270,2014-02-24 23:55:00
6:15 PM,15.8,4.6,61,30.19,10.0,West,9.2,-,N/A,,Scattered Clouds,260,2014-02-25 00:15:00
6:35 PM,15.8,5.0,62,30.20,10.0,West,9.2,-,N/A,,Mostly Cloudy,260,2014-02-25 00:35:00
6:55 PM,15.8,5.7,64,30.19,10.0,West,10.4,-,N/A,,Overcast,260,2014-02-25 00:55:00
7:15 PM,15.8,5.7,64,30.20,10.0,West,12.7,-,N/A,,Overcast,260,2014-02-25 01:15:00
7:35 PM,15.6,5.9,66,30.19,10.0,West,12.7,-,N/A,,Overcast,270,2014-02-25 01:35:00
7:55 PM,15.4,5.7,65,30.19,10.0,West,12.7,-,N/A,,Overcast,260,2014-02-25 01:55:00
8:15 PM,15.3,5.7,66,30.19,10.0,West,10.4,-,N/A,,Overcast,270,2014-02-25 02:15:00
8:35 PM,14.9,5.5,66,30.19,10.0,West,11.5,-,N/A,,Overcast,270,2014-02-25 02:35:00
8:55 PM,14.9,5.5,66,30.19,10.0,West,10.4,-,N/A,,Overcast,270,2014-02-25 02:55:00
9:15 PM,14.9,5.5,66,30.18,10.0,West,10.4,-,N/A,,Overcast,280,2014-02-25 03:15:00
9:35 PM,14.7,5.5,67,30.19,10.0,West,11.5,-,N/A,,Overcast,280,2014-02-25 03:35:00
9:55 PM,14.4,5.5,68,30.20,10.0,West,11.5,-,N/A,,Overcast,280,2014-02-25 03:55:00
10:15 PM,14.0,5.7,70,30.20,10.0,West,10.4,-,N/A,,Overcast,270,2014-02-25 04:15:00
10:35 PM,14.0,5.7,70,30.21,10.0,West,10.4,-,N/A,,Overcast,280,2014-02-25 04:35:00
10:55 PM,13.8,5.5,70,30.20,10.0,West,11.5,-,N/A,,Overcast,280,2014-02-25 04:55:00
11:15 PM,13.8,5.2,69,30.20,10.0,West,10.4,-,N/A,,Overcast,280,2014-02-25 05:15:00
11:35 PM,13.8,5.2,69,30.20,10.0,West,10.4,-,N/A,,Overcast,280,2014-02-25 05:35:00